TimeEDT,TemperatureF,Dew PointF,Humidity,Sea Level PressureIn,VisibilityMPH,Wind Direction,Wind SpeedMPH,Gust SpeedMPH,PrecipitationIn,Events,Conditions,WindDirDegrees,DateUTC
12:54 AM,75.9,73.0,91,30.16,10.0,SW,5.8,-,N/A,,Scattered Clouds,220,2013-06-25 04:54:00
1:54 AM,75.9,72.0,87,30.14,10.0,SSW,6.9,-,N/A,,Partly Cloudy,210,2013-06-25 05:54:00
2:54 AM,75.0,72.0,90,30.14,10.0,SW,4.6,-,N/A,,Partly Cloudy,220,2013-06-25 06:54:00
3:54 AM,75.0,73.0,94,30.14,9.0,SW,8.1,-,N/A,,Scattered Clouds,220,2013-06-25 07:54:00
4:54 AM,75.0,73.0,94,30.14,10.0,SW,8.1,-,N/A,,Partly Cloudy,230,2013-06-25 08:54:00
5:54 AM,75.0,73.0,94,30.15,10.0,SSW,6.9,-,N/A,,Clear,210,2013-06-25 09:54:00
6:54 AM,75.9,73.0,91,30.15,10.0,SW,8.1,-,N/A,,Mostly Cloudy,220,2013-06-25 10:54:00
7:36 AM,75.9,73.0,91,30.15,10.0,SW,8.1,-,N/A,,Mostly Cloudy,220,2013-06-25 11:36:00
7:54 AM,77.0,73.0,88,30.15,10.0,SW,10.4,-,N/A,,Mostly Cloudy,220,2013-06-25 11:54:00
8:54 AM,80.1,73.0,79,30.14,10.0,WSW,15.0,-,N/A,,Mostly Cloudy,250,2013-06-25 12:54:00
9:54 AM,82.9,72.0,69,30.13,10.0,WSW,13.8,-,N/A,,Scattered Clouds,250,2013-06-25 13:54:00
10:25 AM,82.9,71.1,67,30.13,10.0,WSW,15.0,-,N/A,,Scattered Clouds,240,2013-06-25 14:25:00
10:54 AM,84.0,72.0,67,30.13,10.0,WSW,12.7,-,N/A,,Mostly Cloudy,240,2013-06-25 14:54:00
11:54 AM,87.1,71.1,59,30.13,10.0,SW,17.3,-,N/A,,Mostly Cloudy,230,2013-06-25 15:54:00
12:54 PM,88.0,71.1,57,30.11,10.0,WSW,16.1,20.7,N/A,,Mostly Cloudy,240,2013-06-25 16:54:00
1:54 PM,87.1,73.0,63,30.10,10.0,SW,12.7,-,N/A,,Mostly Cloudy,220,2013-06-25 17:54:00
2:54 PM,89.1,73.0,59,30.08,10.0,SW,8.1,-,N/A,,Scattered Clouds,220,2013-06-25 18:54:00
3:54 PM,87.1,75.0,67,30.07,10.0,SW,13.8,-,0.00,Rain,Light Rain,220,2013-06-25 19:54:00
4:54 PM,86.0,73.9,67,30.05,10.0,SSW,9.2,-,0.00,,Mostly Cloudy,200,2013-06-25 20:54:00
5:54 PM,84.0,73.0,69,30.05,10.0,SW,12.7,-,N/A,,Mostly Cloudy,220,2013-06-25 21:54:00
6:45 PM,81.0,73.0,77,30.08,10.0,WSW,13.8,-,N/A,Thunderstorm,Mostly Cloudy,250,2013-06-25 22:45:00
7:10 PM,75.9,68.0,76,30.10,1.8,NNW,9.2,-,0.00,Rain-Thunderstorm,Heavy Thunderstorms and Rain,330,2013-06-25 23:10:00
7:25 PM,73.9,69.1,85,30.11,6.0,WSW,13.8,-,N/A,Thunderstorm,Unknown,250,2013-06-25 23:25:00
7:54 PM,73.0,69.1,87,30.09,10.0,SW,8.1,-,N/A,Thunderstorm,Thunderstorm,220,2013-06-25 23:54:00
8:54 PM,72.0,69.1,91,30.04,6.0,SSW,9.2,-,N/A,Rain,Light Rain,210,2013-06-26 00:54:00
9:54 PM,71.1,68.0,90,30.03,10.0,SSW,4.6,-,N/A,,Mostly Cloudy,210,2013-06-26 01:54:00
10:54 PM,72.0,68.0,87,30.06,10.0,SW,6.9,-,N/A,,Clear,230,2013-06-26 02:54:00
11:54 PM,71.1,68.0,90,30.07,10.0,South,3.5,-,N/A,,Mostly Cloudy,170,2013-06-26 03:54:00